Location: Bayou Vista
(29.6905°N, 91.2709°W)
Time: 03:52:04
(UTC+00:00)

Transit 4A - Pass Details

Date: 16 August 2024
Orbit: 867 x 976 km, 66.8° (Epoch: 09 September)

Event Time Altitude Azimuth Distance (km) Brightness Sun altitude
Rises 00:58:18 0° 340° (NNW) 3,578 11.6 -3.6°
Reaches altitude 10° 01:00:51 10° 344° (NNW) 2,648 10.8 -4.1°
Maximum altitude 01:06:57 58° 63° (ENE) 1,098 8.1 -5.3°
Drops below altitude 10° 01:13:09 10° 142° (SE) 2,698 9.8 -6.6°
Enters shadow 01:15:29 - 146° (SE) 3,549 10.4 -7.1°
